{"data":{"norad_id":68316,"intl_designator":"2026-057Y","name":"STARLINK-37154","alt_names":[],"object_type":"PAYLOAD","status":"ACTIVE","operator":null,"country":"US","launch_date":"2026-03-20","launch_site_code":"AFWTR","launch_vehicle":null,"mission":null,"orbit_class":"UNKNOWN","rcs_meters":null,"size_class":null,"mass_kg":null,"dimensions":null,"purposes":["comms"],"wikipedia_slug":null,"has_3d_model":false,"image_url":null,"decayed_at":null,"tle_current":{"epoch":"2026-05-24T21:50:31.567776Z","epoch_age_seconds":76749,"freshness":"FRESH","line1":"1 68316U 26057Y   26144.91008759  .00091978  00000+0  61011-3 0  9995","line2":"2 68316  97.2848 271.1396 0001388  74.9168 285.2251 15.75220076 10289","mean_motion":15.75220076,"eccentricity":0.0001388,"inclination_deg":97.2848,"raan_deg":271.1396,"arg_perigee_deg":74.9168,"mean_anomaly_deg":285.2251,"bstar":0.00061011,"rev_number":1028,"period_min":91.415797826589,"perigee_km":343.07196919028,"apogee_km":344.93803581017,"semimajor_km":6722.1420025002,"source":"CELESTRAK","updated_at":"2026-05-25T13:38:21.920460Z"}}}